Погода в Гудермесе

Погода в Гудермесе : погода сейчас, прогноз погоды и архив. Всё, что Вы хотите узнать о погоде в Гудермесе!

Поиск расширенной информации на нашем сайте:

Другие новости

Новости СМИ2

Главная страница сайта

Новости сайта

03.07.2017

Напоминаем, что на нашем специализированном сайте Метеоцентр.Азия вы можете получить высокодетализированные автоматические прогнозы погоды по пунктам России, СНГ и мира в авиационном формате (включающие направление и скорость ветра, видимость, явления погоды, количество и форму облачности, нижнюю и верхнюю границу облачности).


Погода в Гудермесе - сегодня

Время (UTC), дата Ветер
(°,м/с) 
Видим.   Явления Облачность Т
(°С)
Тd
(°С)
f(%) Тe
(°С)
Pmin
(гПа)
dP
(гПа)
Po
(мм)
O2
(г/м3)
Тmin Tmax R s Состояние
почвы
15 17.10.17 280 (З) 10 км  в посл. час ливневой дождь  9/8 600 м кучево-дожд., средняя 
[Cb cap|Ac inh]
+12.1 +5.9 66 +12  1019.6  0.5  758  291    +15.9  0.4     
18 17.10.17 270 (З) 10 км  {ливн. осадки}  9/0 средняя 
[Ac trans]
+13 +5 58 +13  1019.8  0.3  758  291           
21 17.10.17 260 (З) 10 км    10/10 600 м 
[Sc]
+11.9 +5.8 66 +11  1020  758  292           
00 18.10.17 260 (З) 10 км    10/10 600 м 
[Sc]
+14.1 +6.8 61 +14  1021.5  0.8  759  290           
03 18.10.17 270 (З) 10 км    10/10 600 м 
[Sc diur, vesp]
+14.6 +9.3 70 +14  1023  1.5  760  289  +11.9        влажная 
06 18.10.17 220 (ЮЗ) 3-11  10 км  {ливн. осадки}  9/9 600 м кучево-дожд. 
[Cb cap]
+12 +9.8 86 +13  1025.7  2.6  762  293           
09 18.10.17 260 (З) 10 км  в посл. час дождь  10/10 600 м 
[Ns]
+12.7 +10.2 85 +14  1025.4  -0.2  762  292           
12 18.10.17 240 (ЮЗ) 10 км  {дождь}  9/9 600 м 
[Sc]
+14.8 +10 73 +16  1024.8  -0.2  762  289           
15 18.10.17 220 (ЮЗ) 10 км    10/10 600 м 
[Sc]
+12.4 +9.8 84 +15  1024.8  762  292    +15  0.8     
18 18.10.17 270 (З) 4000 м  дымка  10/10 300 м 
[St]
+9.6 +7.9 89 +11  1025.1  0.1  762  295           
21 18.10.17 250 (З) 4000 м  дымка  9/9 300 м 
[St]
+8.7 +7.5 92 +10  1024.5  -0.6  761  296           
00 19.10.17 270 (З) 4000 м  дымка  8/8 300 м 
[St]
+7.9 +6.8 93 +9  1024.1  -0.4  761  297           
03 19.10.17 280 (З) 20000 м    ясно 
+6.7 +5.5 92 +7  1024  0.1  761  298  +6.7        влажная 
06 19.10.17 280 (З) 4000 м  дымка  4/4 300 м 
[St]
+9.4 +7.5 88 +9  1024.3  0.3  761  295  +6.4         
09 19.10.17 270 (З) 20000 м    ясно 
+14.9 +9.4 70 +16  1022.6  -1.6  760  289           
12 19.10.17 070 (В) 20000 м    4/0 средняя 
[Ac lent]
+18.2 +8.8 54 +19  1020.8  -6.6  759  285           
15 19.10.17 160 (Ю) 10 км    3/0 средняя 
[Ac lent]
+14.3 +9.2 71 +16  1020.9  -0.1  759  289    +18.7       
18 19.10.17 270 (З) 4000 м  дымка  ясно 
+10.7 +8.2 85 +12  1020.8  -0.2  759  293           
21 19.10.17 260 (З) 4000 м  дымка  ясно 
+9.4 +7.9 90 +9  1019.8  -1  758  294           
00 20.10.17 260 (З) 4000 м  дымка  ясно 
+10.9 +8.2 83 +11  1019.9  0.1  758  292           
03 20.10.17 290 (З) 4000 м  дымка  ясно 
+7.9 +6.3 90 +8  1019.9  0.1  758  296  +7.8        влажная 
06 20.10.17 270 (З) 10 км    ясно 
+10.4 +7.4 82 +10  1020.4  0.6  758  293           
09 20.10.17 270 (З) 20000 м    ясно 
+18.6 +8.1 50 +20  1018.5  -1.6  757  284           
12 20.10.17 тихо ()   20000 м    ясно 
+21.4 +8.3 43 +21  1017.8  -0.1  757  281           
15 20.10.17 200 (Ю) 10 км    ясно 
+15.7 +8.8 63 +17  1018.3  0.4  757  287    +21.4       
Время (UTC), дата Ветер
(°,м/с) 
Видим.   Явления Облачность Т
(°С)
Тd
(°С)
f(%) Тe
(°С)
Pmin
(гПа)
dP
(гПа)
Po
(мм)
O2
(г/м3)
Тmin Tmax R s Состояние
почвы

Для получения пояснительной информации подведите курсор к названию столбца.

ПОГОДА в Гудермесе - архив

Всё, что Вы хотите узнать о погоде в Гудермесе - удобно и подробно!

Выберите нужную дату (начиная с 1 января 2015* года) и нажмите кнопку "Найти".
Будут отображены архивные сводки погоды по пункту Гудермес, начиная с указанной даты.


Отображать данные в формате CSV (для использования в таблицах Excel)


Внимание! Наш архив погоды предназначен исключительно для личного некоммерческого использования в познавательных целях. Если Вам необходимы официальные справки о состоянии погоды (для производственных, юридических, коммерческих и т.п. целей), обращайтесь в органы Росгидромета.

*Примечание: данная дата относится к архиву по метеостанциям СССР (Россия, СНГ, Балтия).
Архив по метеостанциям Зарубежной Европы и Азии (кроме Китая) хранится 10 дней, по другим регионам земного шара (Китай, Африка, Америка, Австралия, Океания) - 1 день.

Гудермес - район местоположения метеостанции


Название, широта, долгота, высота метеостанции:
Гудермес 43.3°ш. 46.1°д. 75 м над ур. моря [Российская Федерация]

Дополнительная информация

В oтличие oт бoльшинства пoгoдных сайтoв мы публикуем пoдрoбную метеoинфoрмацию в детальнoм прoфессиoнальнoм фoрмате.

Характеристики температуры и влажнoсти вoздуха измеряются на высoте 2 м в тени вдали oт зданий и деревьев.
Скoрoсть ветра измеряется на высoте 10 м (на урoвне рoста челoвека скoрoсть ветра ниже в 1.5-2 раза). Если метеoстанция нахoдится в гoрoде или в лесу, тo скoрoсть ветра занижена на 2-4 м/с пo сравнению с oткрытым местoм. Скoрoсть ветра над акватoриями крупных рек и oзёр, а также на вершинах хoлмoв на 2-5 м/с выше, чем в oбычных услoвиях.
Атмoсфернoе давление в разных тoчках местнoсти мoжет значительнo oтличаться oт давления на метеoстанции, в зависимoсти oт услoвий рельефа (при пoдъёме на 10 м давление пoнижается примернo на 1 мм рт.ст.).